GFSMA_925_rhum_057.txt.gz
RH
42 45 47 48 47 48 50 54 60 57 53 45 41 34 30 34 40 46 41 19 60 88 84 83 81 77 73 69 69 72 72 67 65 64 65 64 67 70 70 69 68 67 67
48 45 52 50 53 54 53 56 58 56 55 48 42 34 34 34 37 43 45 33 22 58 86 86 82 80 76 71 72 72 68 64 62 61 61 63 66 69 69 69 70 69 68
62 57 62 61 56 59 58 62 57 57 56 51 42 36 32 36 36 41 49 48 43 37 78 87 82 77 75 74 76 68 64 62 59 57 59 63 66 67 68 69 68 69 68
61 66 66 65 61 60 58 59 56 57 53 49 41 35 33 34 35 36 42 49 50 48 68 78 73 70 66 66 65 63 60 57 55 58 60 62 64 65 66 66 67 67 66
64 61 59 60 63 62 61 58 57 57 55 51 42 34 32 33 34 34 42 43 48 47 53 58 59 42 35 35 37 47 41 49 54 58 61 63 62 64 66 66 65 65 64
62 62 60 64 65 66 62 61 60 59 59 52 39 38 35 36 37 35 33 39 43 40 44 42 41 40 40 40 36 36 49 51 55 60 63 67 70 70 68 67 65 66 64
53 63 67 67 69 67 64 64 62 61 60 51 46 39 39 41 40 39 34 35 39 37 37 39 41 42 41 42 43 53 56 56 56 60 64 68 71 71 69 67 67 63 64
65 70 69 70 72 72 67 66 63 62 61 54 43 48 65 57 48 43 36 38 38 38 36 40 43 42 41 44 48 53 59 57 58 55 66 73 71 73 71 68 67 67 66
67 66 68 71 73 74 70 68 64 65 62 55 47 46 73 78 63 50 47 43 40 40 41 44 46 41 42 43 50 48 51 54 54 54 54 58 74 74 74 70 69 68 66
63 70 66 70 76 74 72 71 66 66 65 60 58 47 50 54 65 63 50 48 46 43 41 41 46 47 49 46 44 46 50 58 57 57 58 57 68 67 67 68 67 67 66
59 68 70 76 75 76 73 71 69 69 67 62 59 54 55 64 57 62 71 57 48 51 47 48 47 48 50 46 43 45 52 56 57 56 52 53 56 66 69 70 69 68 67
62 70 69 77 76 75 74 73 73 72 71 67 71 71 65 64 71 83 75 64 63 55 51 50 48 50 50 43 42 50 54 53 52 52 53 50 46 65 68 68 68 65 68
66 69 71 74 79 78 80 76 76 75 76 77 73 72 72 77 88 70 72 75 75 57 51 47 46 47 40 41 48 50 49 50 48 52 49 47 50 62 64 64 61 62 68
56 66 64 77 73 77 82 80 79 81 87 80 71 76 88 92 80 79 77 83 88 78 65 63 50 47 43 44 46 46 47 46 48 48 49 51 48 51 64 64 58 59 62
64 69 73 83 88 87 87 85 85 85 88 77 85 90 91 90 89 82 82 83 88 91 85 59 52 49 46 40 37 43 43 42 46 48 50 49 47 47 53 63 56 58 58
69 72 90 93 95 92 87 86 86 87 83 86 94 92 90 89 85 86 81 88 92 85 83 61 55 53 49 43 39 38 38 41 46 46 47 47 48 45 43 40 40 49 52
88 95 94 92 96 91 88 90 91 88 90 95 94 93 90 88 87 87 86 93 89 76 74 68 61 57 55 49 46 41 43 41 42 43 45 49 45 42 42 36 33 32 35
91 95 93 90 92 94 94 92 90 91 93 93 93 91 84 90 89 87 90 92 89 76 73 74 70 68 64 59 58 52 47 46 43 41 46 46 44 43 40 33 33 35 37
100 100 95 93 94 94 94 94 93 96 95 91 86 82 86 93 90 90 90 92 91 86 82 82 81 75 72 66 60 58 55 47 44 41 41 45 44 42 32 34 35 38 41
100 100 99 98 98 99 99 99 97 93 90 85 82 92 94 92 90 91 98 99 93 92 89 88 85 84 82 72 68 68 63 55 60 46 44 43 41 36 36 34 42 45 42
100 100 100 100 100 99 98 96 93 91 84 86 92 91 92 90 90 95 100 96 92 90 88 83 82 74 74 73 72 65 67 63 54 50 52 46 42 46 36 40 44 41 40
98 96 95 94 96 95 94 89 86 86 91 96 97 88 79 78 73 67 67 72 76 80 92 88 81 76 73 74 69 69 69 72 78 71 60 57 49 43 42 46 42 40 47
89 87 83 82 85 84 84 86 90 98 99 91 85 76 75 74 73 74 71 69 68 68 71 75 82 78 78 77 75 80 82 78 77 73 68 58 48 44 43 40 45 50 50
85 86 86 86 88 92 91 88 80 71 74 77 75 74 74 73 72 71 70 64 57 56 68 80 89 92 92 85 77 82 82 86 80 72 69 54 54 52 48 46 50 52 50
85 81 78 83 81 89 88 84 74 79 75 71 71 71 62 49 44 39 30 29 35 26 30 43 59 66 48 63 95 99 98 88 86 75 66 56 55 58 55 52 54 52 48
75 72 80 78 73 88 87 75 75 76 73 64 53 45 34 37 46 26 55 83 91 76 82 81 81 89 90 91 82 76 99 91 89 88 72 69 72 73 64 58 57 50 50

GFSMA_925_rhum_063.txt.gz
RH
43 40 44 45 45 44 49 54 49 47 39 35 32 31 32 34 39 43 57 78 82 84 84 84 82 80 80 78 79 74 72 68 66 65 67 70 74 75 76 76 76 75 74
42 42 43 46 48 49 53 57 54 54 44 35 32 31 32 36 40 38 43 58 82 80 81 82 83 80 75 76 77 73 68 67 64 62 63 69 71 73 73 73 74 74 74
41 42 42 45 47 48 53 60 58 56 52 41 35 32 32 35 36 40 38 35 51 78 84 86 87 84 79 77 80 72 67 64 61 59 62 67 68 69 71 72 73 72 71
40 45 39 44 46 48 51 56 60 58 55 50 44 36 33 32 35 36 40 39 39 65 86 86 86 86 84 79 79 75 68 63 54 58 62 66 66 67 70 72 72 70 69
44 35 40 46 48 54 57 56 60 60 58 55 51 42 34 33 33 34 36 41 43 45 67 79 81 77 71 66 66 66 65 51 54 58 64 68 71 76 78 76 74 71 70
44 44 51 60 59 57 59 61 63 63 59 58 54 46 38 34 35 34 35 37 45 47 52 57 66 76 70 47 43 59 60 52 56 60 65 66 70 64 66 70 70 71 70
67 64 66 66 68 67 67 65 65 66 63 59 58 53 50 38 36 35 36 37 42 44 46 47 52 56 57 40 38 49 58 55 61 61 64 61 55 53 55 68 69 69 69
66 68 65 66 66 66 70 70 67 67 63 63 62 54 62 52 42 38 38 38 40 42 42 42 43 43 43 39 41 43 52 58 63 64 66 69 60 56 54 64 67 67 68
58 60 56 65 63 64 66 70 68 65 64 66 64 56 75 74 66 50 45 45 42 46 44 43 40 38 38 39 42 43 40 44 58 65 72 74 67 58 56 61 62 64 68
60 50 56 60 62 64 69 68 70 70 69 70 72 58 56 56 67 67 56 54 50 45 44 44 43 40 40 42 44 44 42 44 49 60 72 75 77 70 53 54 61 68 69
57 50 45 50 54 54 64 70 74 78 73 76 73 67 61 62 74 68 71 63 58 53 52 53 47 43 41 42 44 45 44 46 49 48 52 73 77 75 69 63 66 69 68
51 44 42 45 56 59 65 70 73 75 77 79 79 73 66 76 87 86 88 83 79 68 66 70 71 51 45 47 48 48 47 48 48 47 48 63 77 79 73 69 70 70 68
49 46 38 52 56 54 68 72 79 88 92 93 88 81 75 72 81 79 79 87 86 74 75 65 59 56 54 51 53 59 52 48 48 53 48 51 57 77 74 71 71 70 68
54 46 51 61 57 52 56 77 90 96 100 100 93 86 79 79 94 89 80 88 95 88 74 59 60 61 65 73 62 65 65 68 63 53 49 51 54 56 54 61 72 70 69
57 59 61 59 60 64 67 84 75 87 82 99 94 88 89 90 96 94 86 86 87 98 94 79 74 70 69 67 55 54 51 50 47 48 55 55 56 54 50 52 57 64 70
76 77 78 70 61 65 79 76 89 96 100 99 93 90 92 96 94 91 91 95 91 95 98 85 79 78 75 71 69 65 57 54 50 44 52 58 58 55 54 53 53 52 72
86 88 89 90 88 90 88 100 100 99 99 97 94 95 96 92 92 96 95 95 95 94 100 97 95 88 82 76 71 70 70 63 62 62 61 52 54 59 61 55 62 58 55
90 86 85 99 91 98 100 100 100 99 100 98 97 99 96 98 98 98 97 93 90 90 100 100 97 92 88 84 81 82 79 78 76 72 70 68 68 67 64 62 64 61 58
94 87 81 89 100 100 100 100 100 100 100 98 98 98 99 99 100 97 92 90 88 91 98 100 100 99 95 87 85 78 75 73 70 68 62 56 53 53 57 65 66 64 78
97 88 66 80 99 100 100 100 100 100 100 100 100 100 99 96 93 94 97 94 95 87 95 97 97 98 98 97 98 91 85 78 72 66 62 61 63 63 63 64 65 74 83
100 99 92 98 100 100 100 100 100 100 99 99 100 96 94 96 99 100 99 99 94 89 86 91 97 95 89 87 95 90 91 91 88 87 78 68 63 58 67 69 72 89 93
100 100 100 100 100 100 100 100 98 100 100 96 92 98 100 99 94 93 88 84 78 75 69 69 66 61 68 76 88 82 87 86 78 68 82 80 78 72 68 60 63 83 97
100 100 100 100 100 100 100 100 100 98 94 91 99 99 95 87 80 76 73 69 59 38 26 37 49 55 70 69 82 85 90 91 90 80 76 81 86 96 83 77 78 78 83
100 100 100 100 99 100 100 100 95 91 99 100 94 85 78 76 72 66 56 34 20 30 43 59 77 80 84 84 91 94 100 100 98 88 88 89 84 87 84 88 88 83 59
100 100 100 100 100 99 95 97 100 100 94 84 78 75 70 60 45 24 18 26 36 42 49 48 44 39 41 59 67 87 97 96 90 85 83 85 85 89 91 91 88 88 49
100 100 94 91 93 100 100 100 94 83 77 74 68 56 36 27 20 22 53 68 70 76 58 40 30 32 52 62 77 85 93 98 93 89 75 82 85 93 93 86 86 75 66

GFSMA_925_rhum_069.txt.gz
RH
43 48 41 38 43 56 58 62 48 49 39 38 37 40 50 74 84 81 79 85 86 86 86 86 86 85 84 82 78 73 71 70 72 74 77 80 81 80 80 79 79 78 77
33 45 41 42 40 42 42 42 44 44 44 40 39 38 45 62 79 86 81 83 84 87 87 85 85 86 84 80 77 74 71 67 67 70 76 77 79 78 77 77 77 75 74
33 42 42 48 47 40 37 38 39 37 35 36 35 37 40 44 51 75 84 83 83 85 86 86 86 85 83 82 82 76 72 68 64 66 72 74 75 75 75 75 75 73 72
37 34 41 47 54 48 45 46 43 40 36 36 34 33 33 38 42 50 65 80 84 81 84 83 84 85 83 83 84 80 74 69 60 63 68 70 70 71 72 72 71 73 72
42 38 38 44 56 53 52 54 54 49 44 38 38 35 35 36 37 39 40 50 60 76 78 82 82 83 83 85 87 85 78 72 61 62 68 69 69 69 58 53 48 57 70
46 46 46 48 54 54 59 60 58 57 53 48 47 42 40 39 37 38 39 39 40 47 62 82 87 86 86 84 86 81 76 74 63 63 69 72 73 68 48 46 47 42 60
45 48 50 52 50 54 56 60 60 65 63 58 58 61 55 45 40 38 38 39 39 40 42 48 80 84 87 86 81 77 64 66 67 64 69 74 73 74 53 47 47 37 43
49 49 47 53 50 56 60 54 63 67 68 67 70 66 61 62 56 48 41 39 38 40 41 44 47 60 68 72 80 70 63 65 67 65 69 73 76 77 72 59 60 51 49
58 53 48 50 56 58 46 62 65 69 80 74 67 67 67 65 61 61 56 53 43 39 40 41 44 48 53 61 64 63 58 44 60 65 66 73 76 80 81 78 74 68 64
60 53 49 54 59 60 66 57 54 69 74 85 79 70 64 66 62 63 60 53 49 48 42 41 40 45 49 58 57 64 59 47 42 45 58 64 70 80 83 83 80 74 69
68 66 54 55 68 54 60 60 63 70 71 79 78 78 82 81 75 65 70 65 59 56 55 52 58 44 47 55 50 51 61 61 45 44 45 55 65 68 85 85 84 80 75
76 74 52 59 53 48 57 60 67 76 68 73 83 93 84 79 80 80 81 76 76 73 71 71 57 59 52 53 51 70 84 69 52 48 47 48 52 66 72 85 94 90 86
67 64 61 59 53 54 52 53 55 57 69 78 86 98 90 92 86 90 86 83 88 90 86 78 74 65 56 57 70 69 56 58 60 61 56 60 57 60 63 70 79 80 83
62 46 50 51 52 54 56 55 54 53 59 81 91 94 92 86 97 100 97 93 99 96 87 78 76 71 70 65 62 72 73 69 64 72 70 64 68 65 65 67 70 73 68
56 53 56 60 59 59 57 56 56 64 76 98 95 87 87 98 87 96 99 98 94 99 94 81 77 70 62 67 73 75 68 68 68 67 64 59 55 55 54 51 52 57 66
65 62 57 55 56 56 57 58 61 75 98 97 89 91 79 99 90 87 98 100 98 96 94 82 81 77 74 78 82 84 80 75 74 72 71 72 70 67 65 66 71 70 67
66 69 73 73 72 72 66 66 68 95 100 100 100 100 100 98 100 100 100 100 100 96 92 94 82 82 81 84 85 92 91 86 85 71 67 66 65 63 64 66 66 65 61
69 66 65 62 71 75 71 62 76 94 100 100 100 100 100 100 100 100 100 99 97 97 97 93 92 89 92 91 87 96 89 81 82 70 60 60 57 57 57 57 59 59 58
86 90 85 71 72 80 80 65 88 92 99 99 100 100 100 100 100 100 100 100 99 95 93 96 100 98 91 86 87 83 82 78 71 53 36 18 11 16 14 18 20 26 30
84 85 82 75 86 92 75 80 93 100 100 100 100 100 100 100 99 98 100 99 97 94 96 93 95 91 88 78 85 75 62 58 48 42 42 40 35 47 35 36 31 31 39
80 81 82 90 97 99 97 99 100 100 100 100 100 100 100 100 100 99 98 97 94 96 94 93 88 88 80 65 56 54 52 48 48 50 52 50 50 51 53 55 54 54 50
83 89 100 96 94 97 98 98 100 100 100 100 100 100 100 100 100 100 100 98 96 92 90 86 77 66 54 52 51 56 56 51 39 56 61 53 51 53 55 56 58 61 55
90 96 100 97 96 99 100 100 100 100 100 100 100 100 100 100 100 100 100 97 87 77 66 62 54 52 51 55 66 64 60 65 57 52 55 52 53 54 51 53 61 62 68
98 100 98 100 100 99 100 100 100 100 100 100 100 100 99 100 98 92 85 70 57 50 50 41 58 64 70 72 78 74 74 69 59 51 51 53 45 52 55 59 63 66 72
100 100 100 100 100 100 100 100 100 100 100 100 100 100 99 93 89 79 62 54 63 70 48 38 31 28 28 29 50 68 58 51 56 42 45 57 49 46 51 57 56 66 75
100 100 100 100 100 100 100 100 100 100 100 100 98 92 84 74 76 51 42 56 56 63 60 52 52 45 34 61 31 60 58 62 58 51 48 62 47 57 60 50 54 62 75

GFSMA_925_rhum_075.txt.gz
RH
76 81 78 70 57 58 58 52 50 52 51 52 54 56 51 48 51 59 74 80 82 86 84 84 84 85 84 83 82 81 81 83 82 84 84 84 82 81 79 79 77 77 77
76 74 75 66 60 59 54 50 52 52 49 49 54 53 53 55 51 57 70 82 82 80 84 86 84 84 82 78 77 75 76 77 79 81 82 81 79 76 77 74 73 73 73
73 69 68 59 55 55 53 49 50 45 43 45 49 52 53 56 56 55 63 73 81 84 85 83 87 86 84 81 78 74 72 74 74 79 80 82 79 75 72 68 64 64 64
66 70 64 59 57 56 53 47 45 42 42 42 45 48 48 52 57 58 57 63 70 72 85 87 86 87 86 83 82 78 74 70 70 75 79 80 80 78 73 69 60 49 51
64 58 56 55 56 54 50 46 45 43 42 40 43 43 44 47 55 56 55 59 60 62 72 74 81 84 85 87 88 85 80 76 71 70 76 77 77 78 77 75 67 55 43
69 58 55 54 55 55 49 47 48 48 45 41 37 40 42 44 48 49 54 57 59 62 60 69 75 80 81 80 84 87 86 82 79 72 71 76 76 76 76 77 73 57 55
61 53 52 58 57 46 45 52 55 53 51 48 43 49 52 52 51 46 45 49 55 61 62 60 77 77 77 72 70 85 85 87 88 83 75 74 78 78 77 79 77 71 67
65 58 56 67 62 54 59 62 63 62 58 56 50 53 58 58 58 56 50 49 48 48 52 60 62 63 67 74 78 75 85 85 80 83 86 76 78 82 80 82 82 78 75
63 54 58 68 71 69 69 72 74 72 69 74 69 61 74 69 60 56 58 54 52 53 51 50 54 64 66 67 77 83 77 77 82 75 71 79 76 81 85 86 87 86 82
66 62 77 83 80 76 75 78 80 76 70 68 78 74 72 68 72 76 58 61 59 56 58 59 55 61 61 71 66 68 75 73 74 75 69 72 76 81 85 87 88 90 96
80 72 80 74 65 67 69 76 83 77 76 67 70 71 65 68 69 67 54 57 61 61 60 64 64 58 60 65 63 73 68 73 73 70 69 64 69 75 77 76 82 87 96
84 85 82 72 56 54 60 62 60 60 66 68 62 68 64 66 63 63 64 58 64 65 61 65 62 59 72 76 73 65 67 74 72 72 68 69 64 64 69 72 75 73 76
93 93 88 76 59 62 64 66 64 58 63 65 68 63 63 66 67 65 70 69 68 71 82 89 71 73 78 82 77 71 68 67 67 60 52 62 76 74 58 56 73 79 78
93 96 89 85 66 63 72 73 67 66 66 66 70 70 62 65 70 71 68 69 80 84 91 88 84 92 90 84 76 74 68 64 57 57 65 60 61 63 65 67 67 67 70
78 85 86 80 70 66 76 76 74 68 63 66 69 71 68 70 69 73 74 78 82 85 76 79 88 80 84 78 76 72 74 72 68 66 66 66 63 61 60 61 60 58 56
81 84 87 82 81 75 75 73 71 68 68 65 74 80 78 77 74 77 83 88 89 90 89 77 85 79 78 76 79 76 78 77 75 70 68 68 66 66 66 65 65 64 63
79 77 82 77 72 70 70 70 67 68 70 72 74 73 72 72 74 79 92 91 98 99 98 90 88 89 82 77 76 76 82 82 80 78 75 74 72 71 68 63 62 59 56
72 73 72 75 73 69 69 70 69 68 70 66 64 66 69 72 76 84 93 99 100 99 99 96 96 94 89 84 78 78 81 78 75 71 77 75 68 61 53 48 42 37 27
71 70 69 71 71 69 69 68 68 66 64 62 63 66 68 73 86 100 100 100 99 100 99 99 99 97 95 87 88 90 88 78 79 66 62 60 48 26 19 14 8 6 7
71 71 71 70 68 67 65 63 62 63 65 65 66 69 72 87 98 100 100 97 96 100 100 100 100 98 93 93 91 83 80 72 64 52 39 28 28 33 33 35 33 33 36
69 69 70 71 72 71 68 66 65 65 68 68 71 80 88 90 92 86 98 100 100 100 100 100 100 94 94 88 86 79 67 56 46 40 36 35 38 40 39 40 40 41 42
68 66 67 67 70 70 69 68 70 77 82 88 91 90 97 97 87 97 100 100 100 99 100 99 97 93 90 83 76 67 52 46 41 32 32 40 42 41 40 41 39 38 38
69 68 67 66 66 68 68 70 75 86 88 88 93 99 99 99 100 100 100 100 100 100 100 98 95 93 89 76 58 51 45 42 40 37 38 42 41 44 45 40 37 39 42
71 72 73 72 71 69 70 72 79 86 92 98 100 100 100 100 100 100 100 100 100 99 99 95 91 86 82 61 47 46 44 46 48 47 44 46 40 43 42 41 44 40 37
71 73 74 75 74 73 72 75 85 93 100 100 100 100 100 100 100 100 99 98 98 98 96 95 97 97 84 54 50 46 50 48 54 43 39 40 38 42 45 42 38 41 45
72 75 82 86 84 86 94 99 100 100 100 100 100 100 100 100 100 100 99 99 98 92 92 81 41 27 17 17 14 27 42 42 43 45 45 45 44 44 43 41 42 46 49